{"data":{"norad_id":68105,"epoch":"2026-09-20T04:00:59.082336Z","epoch_age_seconds":84906,"freshness":"FRESH","line1":"1 68105U 26044E   26263.16735049  .00020386  00000+0  63174-3 0  9992","line2":"2 68105  97.2847 222.0748 0002486  91.6881 268.4647 15.33460546 31386","mean_motion":15.33460546,"eccentricity":0.0002486,"inclination_deg":97.2847,"raan_deg":222.0748,"arg_perigee_deg":91.6881,"mean_anomaly_deg":268.4647,"bstar":0.00063174,"rev_number":3138,"period_min":93.905252649389,"perigee_km":463.7955935177,"apogee_km":467.19824830317,"semimajor_km":6843.6339209104,"source":"CELESTRAK","updated_at":"2026-09-20T09:00:43.785759Z"}}